Warning: Javascript must be enabled to use all the features on this page!


Page Loading - Please Wait...

Click to hideNews Bulletins

USGS 04189260 Blanchard River at Ottawa OH

PROVISIONAL DATA SUBJECT TO REVISION

Click to hidestation-specific text
Station operated in cooperation with the Village of Ottawa and the National Streamflow Information Program.
 04189260 Blanchard River at Ottawa, OH
 LOCATION.--Lat 41°01'01", long 84°02'49", Putnam County, OH, Hydrologic 
     Unit 04100008, on right bank at downstream side of Oak Street, 200 ft. upstream 
     of B&O railroad bridge, 800 ft. upstream of SR65 bridge, 1,200 ft. southeast of 
     intersection of SR65 and US RT224 in the village of Ottawa, OH.
 DRAINAGE AREA.--628 mi2.
 PERIOD OF RECORD.--October 2009 to current water year.

Boating safety tips
Available Parameters Available Period
All 2 Available Parameters for this site
  
00065 Gage height 2014-10-29  2015-02-27
00060 Discharge 2009-10-01  2015-02-27

Graph
Graph w/ stats
Graph w/o stats
Graph w/ (up to 3) parms
Table
Tab-separated
Days  (7)
 

  -- or --
Begin date
 

End date
 

Summary of all available data for this site
Instantaneous-data availability statement
Gage height, feet
TIMEFeb 20Feb 21Feb 22Feb 23Feb 24Feb 25Feb 26Feb 27
00:00 EST6.35P  6.23P  6.18P  6.18P  6.13P  6.10P  6.16P  6.10P  
00:30 EST6.34P  6.22P  6.19P  6.19P  6.13P  6.11P  6.16P  6.10P  
01:00 EST6.33P  6.22P  6.19P  6.18P  6.13P  6.11P  6.16P  6.10P  
01:30 EST6.33P  6.21P  6.19P  6.18P  6.13P  6.11P  6.16P  6.10P  
02:00 EST6.32P  6.20P  6.19P  6.18P  6.12P  6.11P  6.17P   
02:30 EST6.31P  6.20P  6.19P  6.19P  6.12P  6.12P  6.17P   
03:00 EST6.30P  6.20P  6.19P  6.19P  6.12P  6.12P  6.17P   
03:30 EST6.29P  6.19P  6.19P  6.18P  6.12P  6.12P  6.18P   
04:00 EST6.29P  6.19P  6.19P  6.18P  6.12P  6.12P  6.18P   
04:30 EST6.28P  6.18P  6.18P  6.19P  6.11P  6.12P  6.18P   
05:00 EST6.27P  6.18P  6.18P  6.18P  6.11P  6.12P  6.19P   
05:30 EST6.26P  6.18P  6.18P  6.18P  6.10P  6.12P  6.19P   
06:00 EST6.25P  6.17P  6.18P  6.18P  6.10P  6.12P  6.19P   
06:30 EST6.24P  6.17P  6.18P  6.18P  6.10P  6.12P  6.19P   
07:00 EST6.24P  6.17P  6.18P  6.18P  6.10P  6.12P  6.19P   
07:30 EST6.23P  6.17P  6.17P  6.18P  6.10P  6.11P  6.19P   
08:00 EST6.22P  6.17P  6.18P  6.17P  6.09P  6.12P  6.19P   
08:30 EST6.22P  6.16P  6.17P  6.17P  6.09P  6.11P  6.19P   
09:00 EST6.21P  6.16P  6.17P  6.17P  6.07P  6.11P  6.19P   
09:30 EST6.20P  6.16P  6.17P  6.16P  6.06P  6.11P  6.20P   
10:00 EST6.19P  6.16P  6.17P  6.16P  6.05P  6.11P  6.20P   
10:30 EST6.18P  6.16P  6.17P  6.15P  6.04P  6.10P  6.20P   
11:00 EST6.18P  6.15P  6.17P  6.16P  6.02P  6.11P  6.19P   
11:30 EST6.18P  6.16P  6.17P  6.15P  6.01P  6.10P  6.19P   
12:00 EST6.17P  6.16P  6.16P  6.14P  6.00P  6.10P  6.18P   
12:30 EST6.18P  6.16P  6.17P  6.14P  5.99P  6.10P  6.17P   
13:00 EST6.18P  6.16P  6.17P  6.14P  5.97P  6.10P  6.16P   
13:30 EST6.18P  6.15P  6.17P  6.13P  5.97P  6.10P  6.15P   
14:00 EST6.18P  6.16P  6.17P  6.13P  5.97P  6.10P  6.13P   
14:30 EST6.19P  6.16P  6.17P  6.13P  5.98P  6.10P  6.12P   
15:00 EST6.19P  6.16P  6.17P  6.13P  5.98P  6.10P  6.10P   
15:30 EST6.19P  6.17P  6.18P  6.13P  6.00P  6.10P  6.09P   
16:00 EST6.19P  6.17P  6.18P  6.13P  6.00P  6.10P  6.08P   
16:30 EST6.20P  6.17P  6.17P  6.13P  6.02P  6.11P  6.08P   
17:00 EST6.21P  6.17P  6.17P  6.13P  6.03P  6.11P  6.07P   
17:30 EST6.21P  6.17P  6.18P  6.13P  6.04P  6.11P  6.07P   
18:00 EST6.22P  6.17P  6.18P  6.13P  6.05P  6.11P  6.08P   
18:30 EST6.22P  6.18P  6.18P  6.13P  6.05P  6.12P  6.08P   
19:00 EST6.22P  6.18P  6.18P  6.13P  6.06P  6.12P  6.08P   
19:30 EST6.23P  6.18P  6.18P  6.13P  6.07P  6.12P  6.08P   
20:00 EST6.23P  6.18P  6.18P  6.13P  6.07P  6.13P  6.09P   
20:30 EST6.23P  6.18P  6.18P  6.13P  6.08P  6.13P  6.09P   
21:00 EST6.23P  6.18P  6.18P  6.13P  6.09P  6.13P  6.09P   
21:30 EST6.24P  6.18P  6.18P  6.13P  6.09P  6.14P  6.09P   
22:00 EST6.23P  6.18P  6.18P  6.13P  6.09P  6.14P  6.09P   
22:30 EST6.23P  6.18P  6.18P  6.13P  6.10P  6.15P  6.10P   
23:00 EST6.23P  6.19P  6.18P  6.13P  6.10P  6.15P  6.10P   
23:30 EST6.23P  6.18P  6.18P  6.13P  6.10P  6.15P  6.10P   
COUNT484848484848484
MAX6.356.236.196.196.136.156.206.10
MIN6.176.156.166.135.976.106.076.10

Explanation
  P  Provisional data subject to revision.